| time (UTC) | temp F | wind direction | speed MPH | gust MPH | rain 1hr in | rain 24hr in | rain mn in | humidity % | barometer mb |
| 20260507050806 | 57 | 87 | 2.0 | 3.0 | 0.00 | 0.09 | 0.07 | 92 | 1013.4 |
| 20260507045806 | 57 | 87 | 1.0 | 2.0 | 0.01 | 0.08 | 0.07 | 92 | 1013.2 |
| 20260507045449 | 57 | 87 | 1.0 | 3.0 | 0.01 | 0.08 | 0.07 | 92 | 1013.0 |
| 20260507043804 | 57 | 87 | 2.0 | 3.0 | 0.01 | 0.08 | 0.07 | 92 | 1012.9 |
| 20260507043216 | 57 | 1 | 2.0 | 4.0 | 0.01 | 0.08 | 0.07 | 91 | 1012.7 |
| 20260507042917 | 57 | 357 | 1.0 | 4.0 | 0.01 | 0.08 | 0.07 | 92 | 1012.7 |
| 20260507040803 | 57 | 227 | 0.0 | 4.0 | 0.02 | 0.08 | 0.07 | 91 | 1012.7 |
| 20260507035806 | 57 | 231 | 1.0 | 4.0 | 0.02 | 0.07 | 0.06 | 91 | 1012.4 |
| 20260507034806 | 57 | 243 | 0.0 | 4.0 | 0.03 | 0.07 | 0.06 | 91 | 1012.4 |
| 20260507033802 | 57 | 278 | 2.0 | 3.0 | 0.04 | 0.07 | 0.06 | 90 | 1012.5 |
| 20260507032805 | 57 | 278 | 0.0 | 2.0 | 0.06 | 0.07 | 0.06 | 90 | 1012.5 |
| 20260507031806 | 57 | 278 | 1.0 | 4.0 | 0.06 | 0.07 | 0.06 | 90 | 1012.5 |
| 20260507030802 | 58 | 288 | 2.0 | 2.0 | 0.06 | 0.07 | 0.06 | 89 | 1012.5 |
| 20260507025801 | 58 | 247 | 1.0 | 3.0 | 0.05 | 0.02 | 0.05 | 88 | 1012.6 |
| 20260507024800 | 58 | 241 | 2.0 | 4.0 | 0.03 | 0.02 | 0.03 | 87 | 1012.5 |
| 20260507023806 | 59 | 220 | 2.0 | 4.0 | 0.02 | 0.02 | 0.02 | 86 | 1012.4 |
| 20260507022759 | 60 | 269 | 3.0 | 5.0 | 0.01 | 0.02 | 0.01 | 83 | 1012.4 |
| 20260507021756 | 60 | 302 | 4.0 | 9.0 | 0.01 | 0.02 | 0.00 | 81 | 1012.3 |
| 20260507020756 | 60 | 278 | 4.0 | 7.0 | 0.00 | 0.02 | 0.00 | 80 | 1012.1 |
| 20260507015755 | 61 | 279 | 4.0 | 6.0 | 0.00 | 0.02 | 0.00 | 79 | 1012.0 |
| 20260507014754 | 61 | 271 | 2.0 | 3.0 | 0.00 | 0.02 | 0.00 | 78 | 1011.9 |
| 20260507013753 | 61 | 261 | 2.0 | 3.0 | 0.00 | 0.02 | 0.00 | 77 | 1012.0 |
| 20260507012755 | 61 | 264 | 2.0 | 4.0 | 0.00 | 0.02 | 0.00 | 77 | 1011.9 |
| 20260507011752 | 61 | 247 | 2.0 | 4.0 | 0.00 | 0.02 | 0.00 | 77 | 1011.9 |
| 20260507010958 | 62 | 283 | 2.0 | 4.0 | 0.00 | 0.02 | 0.00 | 74 | 1011.9 |
| 20260507010942 | 62 | 290 | 5.0 | 9.0 | 0.00 | 0.02 | 0.00 | 75 | 1011.8 |
| 20260507010825 | 61 | 282 | 3.0 | 11.0 | 0.00 | 0.02 | 0.00 | 76 | 1011.9 |
| 20260507003751 | 62 | 295 | 2.0 | 3.0 | 0.00 | 0.02 | 0.00 | 73 | 1012.1 |
| 20260507002754 | 62 | 313 | 0.0 | 2.0 | 0.00 | 0.02 | 0.00 | 73 | 1012.2 |
| 20260507002436 | 62 | 313 | 1.0 | 4.0 | 0.00 | 0.02 | 0.00 | 74 | 1012.2 |
| 20260507000748 | 62 | 17 | 0.0 | 3.0 | 0.00 | 0.02 | 0.00 | 74 | 1012.2 |
| 20260506235747 | 61 | 0 | 2.0 | 5.0 | 0.00 | 0.02 | 0.00 | 75 | 1012.2 |
| 20260506234751 | 61 | 42 | 2.0 | 4.0 | 0.00 | 0.02 | 0.00 | 75 | 1012.3 |
| 20260506233751 | 62 | 35 | 3.0 | 4.0 | 0.00 | 0.02 | 0.00 | 75 | 1012.3 |
| 20260506232749 | 62 | 86 | 3.0 | 6.0 | 0.00 | 0.02 | 0.00 | 74 | 1012.4 |
| 20260506231749 | 62 | 288 | 0.0 | 2.0 | 0.00 | 0.02 | 0.00 | 71 | 1012.4 |
| 20260506230748 | 63 | 288 | 0.0 | 6.0 | 0.00 | 0.02 | 0.00 | 71 | 1012.3 |
| 20260506225747 | 63 | 302 | 2.0 | 4.0 | 0.00 | 0.02 | 0.00 | 71 | 1012.3 |
| 20260506224747 | 63 | 310 | 2.0 | 4.0 | 0.00 | 0.02 | 0.00 | 70 | 1012.3 |
| 20260506223747 | 63 | 314 | 3.0 | 4.0 | 0.00 | 0.02 | 0.00 | 70 | 1012.5 |
| 20260506222748 | 63 | 337 | 3.0 | 5.0 | 0.00 | 0.02 | 0.00 | 71 | 1012.5 |
| 20260506221750 | 63 | 0 | 2.0 | 5.0 | 0.00 | 0.02 | 0.00 | 71 | 1012.5 |
| 20260506220748 | 63 | 298 | 2.0 | 4.0 | 0.00 | 0.02 | 0.00 | 71 | 1012.4 |
| 20260506215747 | 63 | 288 | 0.0 | 5.0 | 0.00 | 0.02 | 0.02 | 70 | 1012.5 |
| 20260506214745 | 63 | 274 | 1.0 | 4.0 | 0.00 | 0.02 | 0.02 | 69 | 1012.5 |
| 20260506213749 | 63 | 329 | 2.0 | 9.0 | 0.00 | 0.02 | 0.02 | 69 | 1012.4 |
| 20260506212745 | 63 | 78 | 4.0 | 6.0 | 0.00 | 0.02 | 0.02 | 71 | 1012.4 |
| 20260506211744 | 63 | 18 | 0.0 | 5.0 | 0.00 | 0.02 | 0.02 | 71 | 1012.5 |
| 20260506210828 | 62 | 63 | 3.0 | 4.0 | 0.00 | 0.02 | 0.02 | 71 | 1012.5 |
| 20260506210757 | 63 | 21 | 1.0 | 3.0 | 0.00 | 0.02 | 0.02 | 71 | 1012.5 |
| 20260506205427 | 63 | 285 | 3.0 | 5.0 | 0.00 | 0.02 | 0.02 | 75 | 1012.5 |
| 20260506205327 | 63 | 254 | 0.0 | 4.0 | 0.00 | 0.02 | 0.02 | 76 | 1012.5 |
| 20260506205307 | 63 | 224 | 0.0 | 3.0 | 0.00 | 0.02 | 0.02 | 76 | 1012.6 |
| 20260506204829 | 63 | 300 | 0.0 | 2.0 | 0.00 | 0.02 | 0.02 | 71 | 1012.4 |
| 20260506204003 | 63 | 193 | 0.0 | 4.0 | 0.00 | 0.02 | 0.02 | 72 | 1012.6 |
| 20260506195746 | 63 | 157 | 2.0 | 4.0 | 0.00 | 0.02 | 0.02 | 77 | 1012.6 |
| 20260506194744 | 63 | 319 | 3.0 | 4.0 | 0.00 | 0.02 | 0.02 | 78 | 1012.4 |
| 20260506193744 | 63 | 41 | 1.0 | 3.0 | 0.00 | 0.02 | 0.02 | 80 | 1012.4 |
| 20260506192945 | 63 | 241 | 0.0 | 2.0 | 0.00 | 0.02 | 0.02 | 80 | 1012.1 |
| 20260506192804 | 63 | 261 | 0.0 | 3.0 | 0.00 | 0.02 | 0.02 | 80 | 1012.2 |
| 20260506191058 | 64 | 266 | 2.0 | 3.0 | 0.00 | 0.02 | 0.02 | 80 | 1011.8 |
| 20260506190822 | 63 | 248 | 0.0 | 3.0 | 0.00 | 0.02 | 0.02 | 79 | 1012.0 |
| 20260506184747 | 64 | 228 | 2.0 | 2.0 | 0.00 | 0.02 | 0.02 | 80 | 1011.9 |
| 20260506183743 | 65 | 80 | 0.0 | 0.0 | 0.00 | 0.02 | 0.02 | 78 | 1011.7 |
| 20260506182741 | 65 | 80 | 0.0 | 0.0 | 0.00 | 0.02 | 0.02 | 78 | 1011.7 |
| 20260506181744 | 65 | 80 | 1.0 | 4.0 | 0.00 | 0.02 | 0.02 | 79 | 1011.7 |
| 20260506180739 | 65 | 32 | 0.0 | 3.0 | 0.00 | 0.02 | 0.02 | 77 | 1011.7 |
| 20260506175740 | 65 | 75 | 2.0 | 3.0 | 0.00 | 0.02 | 0.02 | 77 | 1011.5 |
| 20260506174738 | 65 | 75 | 3.0 | 4.0 | 0.00 | 0.02 | 0.02 | 79 | 1011.5 |
| 20260506173741 | 66 | 47 | 1.0 | 3.0 | 0.00 | 0.02 | 0.02 | 81 | 1011.5 |
| 20260506172741 | 66 | 47 | 1.0 | 3.0 | 0.00 | 0.02 | 0.02 | 81 | 1011.3 |
| 20260506171741 | 66 | 4 | 0.0 | 5.0 | 0.00 | 0.02 | 0.02 | 80 | 1011.3 |
| 20260506170740 | 67 | 62 | 2.0 | 5.0 | 0.00 | 0.02 | 0.02 | 78 | 1011.1 |
| 20260506165742 | 67 | 69 | 3.0 | 5.0 | 0.00 | 0.02 | 0.02 | 78 | 1011.2 |
| 20260506164743 | 67 | 86 | 0.0 | 3.0 | 0.00 | 0.02 | 0.02 | 78 | 1011.2 |
| 20260506163739 | 68 | 86 | 0.0 | 3.0 | 0.00 | 0.02 | 0.02 | 78 | 1011.3 |
| 20260506162738 | 68 | 86 | 2.0 | 3.0 | 0.00 | 0.02 | 0.02 | 76 | 1011.2 |
| 20260506161739 | 68 | 86 | 2.0 | 4.0 | 0.00 | 0.02 | 0.02 | 75 | 1011.2 |
| 20260506160738 | 69 | 93 | 2.0 | 4.0 | 0.00 | 0.02 | 0.02 | 71 | 1011.3 |
| 20260506155742 | 69 | 131 | 0.0 | 2.0 | 0.00 | 0.02 | 0.02 | 66 | 1011.2 |
| 20260506154739 | 70 | 155 | 1.0 | 3.0 | 0.00 | 0.02 | 0.02 | 61 | 1011.1 |
| 20260506153735 | 70 | 235 | 1.0 | 3.0 | 0.00 | 0.02 | 0.02 | 58 | 1011.1 |
| 20260506152739 | 70 | 251 | 2.0 | 10.0 | 0.00 | 0.02 | 0.02 | 57 | 1011.0 |
| 20260506152255 | 71 | 182 | 2.0 | 5.0 | 0.00 | 0.02 | 0.02 | 56 | 1010.9 |
| 20260506151901 | 71 | 269 | 2.0 | 7.0 | 0.00 | 0.02 | 0.02 | 56 | 1010.8 |
| 20260506145734 | 72 | 310 | 2.0 | 6.0 | 0.00 | 0.02 | 0.02 | 55 | 1010.8 |
| 20260506144736 | 72 | 168 | 2.0 | 7.0 | 0.00 | 0.02 | 0.02 | 55 | 1010.7 |
| 20260506143734 | 72 | 196 | 3.0 | 10.0 | 0.00 | 0.02 | 0.02 | 54 | 1010.6 |
| 20260506142735 | 73 | 243 | 3.0 | 9.0 | 0.00 | 0.02 | 0.02 | 56 | 1010.6 |
| 20260506142358 | 72 | 210 | 3.0 | 6.0 | 0.00 | 0.02 | 0.02 | 55 | 1010.5 |
| 20260506141220 | 73 | 262 | 2.0 | 5.0 | 0.00 | 0.02 | 0.02 | 55 | 1010.7 |
| 20260506140857 | 73 | 0 | 2.0 | 6.0 | 0.00 | 0.02 | 0.02 | 54 | 1010.7 |
| 20260506134741 | 74 | 357 | 3.0 | 7.0 | 0.00 | 0.02 | 0.02 | 52 | 1010.9 |
| 20260506133735 | 76 | 175 | 2.0 | 5.0 | 0.00 | 0.02 | 0.02 | 50 | 1011.0 |
| 20260506132734 | 77 | 343 | 1.0 | 7.0 | 0.00 | 0.02 | 0.02 | 48 | 1011.0 |
| 20260506131736 | 77 | 250 | 3.0 | 13.0 | 0.00 | 0.02 | 0.02 | 49 | 1011.1 |
| 20260506130735 | 78 | 243 | 3.0 | 9.0 | 0.00 | 0.02 | 0.02 | 50 | 1011.0 |
| 20260506130244 | 76 | 165 | 3.0 | 7.0 | 0.00 | 0.02 | 0.02 | 52 | 1011.3 |
| 20260506125844 | 77 | 220 | 4.0 | 12.0 | 0.00 | 0.02 | 0.02 | 51 | 1011.3 |
| 20260506123735 | 76 | 165 | 2.0 | 5.0 | 0.00 | 0.02 | 0.02 | 53 | 1011.3 |
| 20260506122733 | 76 | 279 | 1.0 | 6.0 | 0.00 | 0.02 | 0.02 | 52 | 1011.4 |
| 20260506121731 | 76 | 234 | 3.0 | 7.0 | 0.00 | 0.02 | 0.02 | 55 | 1011.3 |
| 20260506120732 | 75 | 221 | 1.0 | 13.0 | 0.00 | 0.02 | 0.02 | 55 | 1011.3 |
| 20260506115732 | 74 | 288 | 3.0 | 7.0 | 0.00 | 0.02 | 0.02 | 56 | 1011.2 |
| 20260506114733 | 74 | 200 | 2.0 | 5.0 | 0.00 | 0.02 | 0.02 | 60 | 1011.3 |
| 20260506113732 | 73 | 188 | 2.0 | 12.0 | 0.00 | 0.02 | 0.02 | 66 | 1011.3 |
| 20260506112733 | 71 | 100 | 4.0 | 10.0 | 0.00 | 0.02 | 0.02 | 71 | 1011.4 |
| 20260506111730 | 70 | 103 | 3.0 | 10.0 | 0.00 | 0.02 | 0.02 | 72 | 1011.7 |
| 20260506110733 | 69 | 162 | 2.0 | 9.0 | 0.00 | 0.02 | 0.02 | 73 | 1011.5 |
| 20260506105729 | 69 | 78 | 4.0 | 9.0 | 0.00 | 0.02 | 0.02 | 71 | 1011.7 |
| 20260506105423 | 68 | 97 | 2.0 | 11.0 | 0.00 | 0.02 | 0.02 | 75 | 1011.9 |
| 20260506103731 | 68 | 82 | 3.0 | 7.0 | 0.00 | 0.02 | 0.02 | 73 | 1012.0 |
| 20260506102731 | 70 | 71 | 3.0 | 7.0 | 0.00 | 0.02 | 0.02 | 70 | 1012.0 |
| 20260506101729 | 71 | 90 | 3.0 | 6.0 | 0.00 | 0.02 | 0.02 | 64 | 1012.1 |
| 20260506100727 | 71 | 58 | 6.0 | 9.0 | 0.00 | 0.02 | 0.02 | 63 | 1012.0 |
| 20260506095731 | 71 | 159 | 3.0 | 7.0 | 0.00 | 0.02 | 0.02 | 65 | 1012.1 |
| 20260506094731 | 69 | 121 | 2.0 | 9.0 | 0.00 | 0.02 | 0.02 | 70 | 1012.2 |
| 20260506093728 | 70 | 93 | 7.0 | 11.0 | 0.00 | 0.02 | 0.02 | 68 | 1012.0 |
| 20260506093621 | 71 | 110 | 6.0 | 13.0 | 0.00 | 0.02 | 0.02 | 62 | 1012.1 |
| 20260506091729 | 71 | 164 | 6.0 | 11.0 | 0.00 | 0.02 | 0.02 | 66 | 1012.1 |
| 20260506090733 | 69 | 118 | 3.0 | 7.0 | 0.00 | 0.02 | 0.02 | 70 | 1012.1 |
| 20260506085728 | 68 | 68 | 4.0 | 10.0 | 0.00 | 0.02 | 0.02 | 68 | 1012.2 |
| 20260506084729 | 68 | 82 | 5.0 | 9.0 | 0.00 | 0.02 | 0.02 | 67 | 1012.1 |
| 20260506083730 | 68 | 97 | 3.0 | 7.0 | 0.00 | 0.02 | 0.02 | 67 | 1012.1 |
| 20260506082730 | 67 | 158 | 2.0 | 6.0 | 0.00 | 0.02 | 0.02 | 70 | 1012.1 |
| 20260506081727 | 65 | 120 | 2.0 | 5.0 | 0.00 | 0.02 | 0.02 | 70 | 1012.1 |
| 20260506080726 | 63 | 116 | 1.0 | 6.0 | 0.00 | 0.02 | 0.02 | 75 | 1012.0 |
| 20260506072727 | 60 | 159 | 1.0 | 2.0 | 0.00 | 0.04 | 0.02 | 83 | 1012.1 |
| 20260506071724 | 59 | 13 | 0.0 | 3.0 | 0.01 | 0.05 | 0.02 | 84 | 1012.1 |
| 20260506071447 | 59 | 0 | 2.0 | 5.0 | 0.02 | 0.06 | 0.02 | 85 | 1012.2 |
| 20260506060726 | 59 | 165 | 1.0 | 5.0 | 0.00 | 0.05 | 0.00 | 87 | 1012.3 |
| 20260506060314 | 59 | 83 | 4.0 | 5.0 | 0.00 | 0.05 | 0.00 | 88 | 1012.1 |